Grant County, OR

3:02 AM PDT on September 18, 2019 (GMT -0700)
Grant County Regional

Weather History for KGCD - August, 2019

Change the Weather History Date:

Sunday, August 25, 2019

  Actual Average (WUND) Record (WUND)
Temperature  
Mean Temperature 66 °F -  
Max Temperature 80 °F - - (-1)
Min Temperature 53 °F - - (-1)
Cooling Degree Days 1    
Growing Degree Days 16 (Base 50)    
Moisture  
Dew Point 40 °F    
Average Humidity 41    
Maximum Humidity 73    
Minimum Humidity 19    
Precipitation  
Precipitation 0.00 in - - ()
Sea Level Pressure  
Sea Level Pressure 30.12 in    
Wind  
Wind Speed 5 mph (West)    
Max Wind Speed 15 mph    
Max Gust Speed 22 mph    
Visibility 10 miles    
Events      
Averages and records for this station are not official NWS values.
T = Trace of Precipitation, MM = Missing Value Source: NWS Daily Summary

Daily Weather History Graph

Daily Weather History Graph

Search for Another Location

Airport or City:

Astronomy

Aug. 25, 2019 Rise Set
Actual Time 6:10 AM PDT 7:44 PM PDT
Civil Twilight 5:39 AM PDT 8:15 PM PDT
Nautical Twilight 5:02 AM PDT 8:52 PM PDT
Astronomical Twilight 4:22 AM PDT 9:31 PM PDT
Moon 12:41 AM PDT (8/25) 4:18 PM PDT (8/25)
Length of Visible Light 14h 35m
Length of Day
13h 34m
Waning Crescent, 28% of the Moon is Illuminated
Aug 25
Waning Crescent
Aug 30
New
Sep 5
First Quarter
Sep 13
Full
Sep 21
Last Quarter

Hourly Weather History & Observations

Time (PDT) Temp. Dew Point Humidity Pressure Visibility Wind Dir Wind Speed Gust Speed Precip Events Conditions
12:35 AM 63.3 °F 43.5 °F 48% 30.04 in 10.0 mi West 5.8 mph - N/A   Clear
12:55 AM 63.0 °F 43.5 °F 49% 30.04 in 10.0 mi WSW 5.8 mph - N/A   Clear
1:15 AM 61.7 °F 43.7 °F 52% 30.04 in 10.0 mi WSW 4.6 mph - N/A   Clear
1:35 AM 61.0 °F 43.7 °F 53% 30.04 in 10.0 mi WSW 4.6 mph - N/A   Clear
1:55 AM 59.9 °F 43.7 °F 55% 30.04 in 10.0 mi Calm Calm - N/A   Clear
2:15 AM 60.1 °F 44.2 °F 56% 30.05 in 10.0 mi WSW 4.6 mph - N/A   Clear
2:35 AM 58.3 °F 44.4 °F 60% 30.05 in 10.0 mi SW 5.8 mph - N/A   Clear
2:55 AM 58.1 °F 44.8 °F 61% 30.05 in 10.0 mi SW 6.9 mph - N/A   Clear
3:15 AM 57.7 °F 45.3 °F 63% 30.06 in 10.0 mi WSW 5.8 mph - N/A   Clear
3:35 AM 57.4 °F 45.1 °F 64% 30.06 in 10.0 mi WSW 3.5 mph - N/A   Clear
3:55 AM 57.6 °F 45.5 °F 64% 30.06 in 10.0 mi SW 4.6 mph - N/A   Clear
4:35 AM 55.6 °F 45.1 °F 68% 30.07 in 10.0 mi Calm Calm - N/A   Clear
4:55 AM 55.4 °F 45.3 °F 69% 30.08 in 10.0 mi WNW 3.5 mph - N/A   Clear
5:15 AM 55.2 °F 44.6 °F 67% 30.08 in 10.0 mi Calm Calm - N/A   Clear
5:35 AM 55.2 °F 45.0 °F 68% 30.09 in 10.0 mi Calm Calm - N/A   Clear
5:55 AM 54.9 °F 45.1 °F 70% 30.10 in 10.0 mi SW 4.6 mph - N/A   Clear
6:15 AM 53.6 °F 45.1 °F 73% 30.10 in 10.0 mi SW 6.9 mph - N/A   Clear
6:35 AM 54.5 °F 45.5 °F 72% 30.10 in 10.0 mi SW 5.8 mph - N/A   Clear
6:55 AM 55.6 °F 45.9 °F 70% 30.11 in 10.0 mi Calm Calm - N/A   Clear
7:15 AM 55.9 °F 45.7 °F 68% 30.13 in 10.0 mi Calm Calm - N/A   Clear
7:35 AM 58.1 °F 46.2 °F 65% 30.12 in 10.0 mi Calm Calm - N/A   Clear
7:55 AM 60.3 °F 46.4 °F 60% 30.12 in 10.0 mi SW 3.5 mph - N/A   Clear
8:35 AM 62.1 °F 46.4 °F 56% 30.14 in 10.0 mi West 3.5 mph - N/A   Clear
8:55 AM 62.8 °F 46.6 °F 55% 30.14 in 10.0 mi West 5.8 mph - N/A   Clear
9:15 AM 63.9 °F 46.9 °F 54% 30.14 in 10.0 mi West 6.9 mph - N/A   Clear
9:35 AM 65.7 °F 47.1 °F 51% 30.14 in 10.0 mi West 4.6 mph - N/A   Clear
9:55 AM 66.9 °F 47.1 °F 49% 30.14 in 10.0 mi West 5.8 mph - N/A   Clear
10:15 AM 68.2 °F 46.2 °F 45% 30.14 in 10.0 mi West 6.9 mph - N/A   Clear
10:35 AM 68.9 °F 44.4 °F 41% 30.14 in 10.0 mi WNW 13.8 mph 17.3 mph N/A   Clear
10:55 AM 69.8 °F 43.5 °F 39% 30.14 in 10.0 mi West 8.1 mph - N/A   Clear
11:15 AM 71.2 °F 43.9 °F 37% 30.14 in 10.0 mi West 6.9 mph - N/A   Clear
11:35 AM 71.6 °F 43.9 °F 37% 30.14 in 10.0 mi Calm Calm - N/A   Clear
11:55 AM 73.0 °F 44.1 °F 35% 30.14 in 10.0 mi WSW 10.4 mph - N/A   Clear
12:15 PM 73.4 °F 43.3 °F 34% 30.14 in 10.0 mi WSW 6.9 mph - N/A   Clear
12:35 PM 74.7 °F 43.5 °F 33% 30.14 in 10.0 mi WSW 10.4 mph - N/A   Clear
12:55 PM 75.6 °F 41.5 °F 29% 30.14 in 10.0 mi Calm Calm - N/A   Clear
1:15 PM 76.3 °F 39.4 °F 26% 30.13 in 10.0 mi West 12.7 mph 18.4 mph N/A   Clear
1:35 PM 78.1 °F 38.8 °F 24% 30.13 in 10.0 mi WNW 9.2 mph 18.4 mph N/A   Clear
1:55 PM 79.5 °F 38.5 °F 23% 30.13 in 10.0 mi WNW 12.7 mph - N/A   Clear
2:15 PM 79.2 °F 37.8 °F 23% 30.13 in 10.0 mi WNW 13.8 mph 21.9 mph N/A   Clear
2:35 PM 79.3 °F 37.6 °F 22% 30.13 in 10.0 mi West 8.1 mph - N/A   Clear
2:55 PM 79.9 °F 37.8 °F 22% 30.13 in 10.0 mi NW 9.2 mph - N/A   Clear
3:15 PM 79.3 °F 37.4 °F 22% 30.13 in 10.0 mi WNW 12.7 mph 20.7 mph N/A   Clear
3:35 PM 79.9 °F 36.9 °F 21% 30.13 in 10.0 mi NNW 11.5 mph 16.1 mph N/A   Clear
3:55 PM 79.5 °F 36.0 °F 21% 30.13 in 10.0 mi NNW 5.8 mph - N/A   Clear
4:15 PM 79.3 °F 36.0 °F 21% 30.12 in 10.0 mi NNW 11.5 mph 18.4 mph N/A   Clear
4:35 PM 79.2 °F 35.4 °F 21% 30.12 in 10.0 mi WNW 8.1 mph 17.3 mph N/A   Clear
4:55 PM 78.8 °F 34.2 °F 20% 30.12 in 10.0 mi NNW 12.7 mph 21.9 mph N/A   Clear
5:15 PM 78.8 °F 32.5 °F 19% 30.13 in 10.0 mi WNW 15.0 mph 20.7 mph N/A   Clear
5:35 PM 78.1 °F 32.5 °F 19% 30.13 in 10.0 mi NW 10.4 mph 19.6 mph N/A   Clear
5:55 PM 77.4 °F 31.6 °F 19% 30.13 in 10.0 mi NW 12.7 mph 17.3 mph N/A   Clear
6:15 PM 76.5 °F 32.0 °F 20% 30.13 in 10.0 mi NW 8.1 mph 12.7 mph N/A   Clear
6:55 PM 74.7 °F 32.4 °F 21% 30.14 in 10.0 mi NNW 11.5 mph - N/A   Clear
7:15 PM 73.4 °F 32.9 °F 23% 30.14 in 10.0 mi NNW 9.2 mph - N/A   Clear
7:35 PM 71.8 °F 33.3 °F 24% 30.14 in 10.0 mi NNW 8.1 mph - N/A   Clear
7:55 PM 69.4 °F 33.3 °F 26% 30.15 in 10.0 mi NNW 3.5 mph - N/A   Clear
8:15 PM 68.2 °F 33.4 °F 28% 30.16 in 10.0 mi NNE 4.6 mph - N/A   Clear
8:35 PM 68.0 °F 33.8 °F 28% 30.17 in 10.0 mi Calm Calm - N/A   Clear
8:55 PM 66.7 °F 32.9 °F 28% 30.17 in 10.0 mi Calm Calm - N/A   Clear
9:15 PM 66.9 °F 32.2 °F 27% 30.18 in 10.0 mi Calm Calm - N/A   Clear
9:35 PM 66.4 °F 32.0 °F 28% 30.18 in 10.0 mi NW 4.6 mph - N/A   Clear
9:55 PM 66.2 °F 32.0 °F 28% 30.18 in 10.0 mi Calm Calm - N/A   Clear
10:15 PM 63.0 °F 32.0 °F 31% 30.19 in 10.0 mi Calm Calm - N/A   Clear
10:35 PM 65.7 °F 32.0 °F 29% 30.19 in 10.0 mi Calm Calm - N/A   Clear
10:55 PM 64.0 °F 32.0 °F 30% 30.19 in 10.0 mi NW 3.5 mph - N/A   Clear
11:15 PM 62.8 °F 32.0 °F 32% 30.18 in 10.0 mi Calm Calm - N/A   Clear
11:35 PM 59.9 °F 32.0 °F 35% 30.18 in 10.0 mi Calm Calm - N/A   Clear
11:55 PM 59.5 °F 32.0 °F 35% 30.19 in 10.0 mi Calm Calm - N/A   Clear